GW4692 Weather Reports


time (UTC)temp
F
wind
direction
speed
knots
gust
knots
rain 1hr
in
rain 24hr
in
rain mn
in
humidity
%
barometer
mb
20260507023044 50 48 2.6 7.0 0.00 0.94 0.03 71 1003.7
20260507021538 50 36 4.3 6.1 0.01 0.94 0.03 70 1003.7
20260507020145 50 9 2.6 3.5 0.01 0.94 0.03 70 1003.9
20260507014533 50 325 0.9 2.6 0.01 0.94 0.03 70 1003.9
20260507013056 50 32 2.6 7.0 0.02 0.94 0.02 70 1003.6
20260507011558 50 348 3.5 7.0 0.02 0.94 0.02 70 1003.6
20260507010044 50 32 4.3 6.1 0.02 0.94 0.02 70 1003.5
20260507004615 51 15 1.7 2.6 0.02 0.94 0.02 70 1003.5
20260507003153 51 38 0.0 2.6 0.01 0.93 0.01 70 1003.5
20260507001525 51 20 0.0 2.6 0.01 0.93 0.01 70 1003.5
20260507000020 51 29 1.7 5.2 0.01 0.93 0.01 70 1003.4
20260506234538 51 22 2.6 7.0 0.00 0.92 0.00 71 1003.5
20260506231602 51 11 3.5 6.1 0.00 0.92 0.00 70 1003.4
20260506231514 51 7 3.5 7.8 0.00 0.92 0.00 70 1003.4
20260506230059 51 353 4.3 7.0 0.00 0.92 0.00 70 1003.1
20260506224556 51 21 3.5 6.1 0.00 0.92 0.00 70 1003.2
20260506223021 51 40 3.5 7.0 0.00 0.92 0.00 70 1003.0
20260506221552 51 24 3.5 7.8 0.00 0.92 0.00 70 1003.1
20260506220049 51 18 4.3 7.8 0.00 0.92 0.00 70 1003.1
20260506213041 51 9 2.6 5.2 0.00 0.92 0.92 70 1003.0
20260506211539 50 7 0.0 3.5 0.00 0.92 0.92 70 1003.0
20260506211508 51 7 0.0 3.5 0.00 0.92 0.92 70 1002.9
20260506210041 50 38 2.6 5.2 0.00 0.92 0.92 70 1002.8
20260506204525 51 1 2.6 5.2 0.00 0.93 0.92 70 1002.7
20260506201559 51 14 4.3 7.0 0.00 0.93 0.92 71 1002.6
20260506200033 51 34 1.7 2.6 0.00 0.93 0.92 71 1002.5
20260506193145 51 56 1.7 3.5 0.01 0.94 0.92 70 1002.0
20260506191606 51 7 2.6 6.1 0.09 0.94 0.92 70 1001.7
20260506190052 51 7 3.5 12.2 0.11 0.94 0.92 70 1001.4
20260506184551 51 71 9.6 14.8 0.11 0.94 0.92 70 1000.5
20260506183021 52 22 7.0 9.6 0.09 0.93 0.91 70 1001.5
20260506181544 53 298 7.8 15.6 0.02 0.86 0.83 70 1002.2
20260506180044 53 279 4.3 6.1 0.00 0.83 0.81 69 1001.2
20260506174539 54 357 0.0 0.0 0.00 0.83 0.81 70 1000.6
20260506173033 54 357 0.0 2.6 0.00 0.83 0.81 70 1000.3
20260506171554 54 27 1.7 3.5 0.00 0.83 0.81 70 1000.0
20260506170023 54 81 0.9 2.6 0.00 0.83 0.81 69 999.9
20260506164511 54 96 0.9 2.6 0.00 0.86 0.81 69 1000.0
20260506163008 54 58 0.9 5.2 0.00 0.86 0.81 70 1000.0
20260506161509 54 360 5.2 8.7 0.00 0.86 0.81 70 999.4
20260506160103 54 28 7.0 11.3 0.01 0.86 0.81 70 998.7
20260506160004 54 24 7.8 11.3 0.01 0.89 0.81 70 998.7
20260506154559 54 38 4.3 11.3 0.06 0.89 0.81 70 998.8
20260506153037 55 40 7.0 13.9 0.36 0.89 0.81 71 999.1
20260506151639 54 13 7.8 11.3 0.39 0.89 0.81 73 999.2
20260506150056 52 33 6.1 13.0 0.39 0.88 0.80 72 999.2
20260506144600 52 26 8.7 16.5 0.34 0.85 0.76 71 999.4
20260506143029 53 21 10.4 13.9 0.17 0.53 0.43 69 999.8
20260506141513 54 23 8.7 11.3 0.15 0.51 0.42 73 999.2
20260506140134 56 339 0.9 9.6 0.15 0.51 0.42 76 999.0
20260506134631 55 338 7.8 11.3 0.15 0.51 0.42 75 998.8
20260506133053 60 229 11.3 20.9 0.00 0.36 0.27 71 999.1
20260506131638 59 74 13.9 18.2 0.00 0.36 0.27 73 998.4
20260506130028 60 116 9.6 13.0 0.00 0.36 0.27 72 999.1
20260506124526 59 101 5.2 11.3 0.02 0.36 0.27 70 999.5
20260506123025 59 107 7.8 11.3 0.02 0.36 0.27 71 999.6
20260506121527 59 130 9.6 17.4 0.02 0.36 0.27 74 999.6
20260506120029 59 111 8.7 14.8 0.02 0.36 0.27 69 999.5
20260506114526 59 111 7.0 14.8 0.01 0.37 0.25 75 999.6
20260506113022 59 110 10.4 18.2 0.00 0.36 0.24 75 999.7
20260506111521 60 116 9.6 17.4 0.00 0.36 0.24 74 999.8
20260506110020 59 88 11.3 15.6 0.00 0.36 0.24 73 1000.0
20260506104518 59 107 11.3 17.4 0.00 0.40 0.24 74 1000.2
20260506103018 60 116 7.0 15.6 0.00 0.40 0.24 72 1000.2
20260506101514 58 97 10.4 16.5 0.00 0.40 0.24 71 1000.2
20260506100014 58 116 12.2 19.1 0.00 0.40 0.24 72 1000.3
20260506094511 58 126 9.6 15.6 0.01 0.43 0.24 70 1000.3
20260506093007 55 111 7.8 13.9 0.02 0.43 0.24 72 1000.3
20260506091507 55 217 7.0 13.9 0.07 0.43 0.24 72 1000.4
20260506090006 54 116 8.7 22.6 0.15 0.43 0.24 72 999.7
20260506084601 54 103 10.4 18.2 0.17 0.43 0.24 73 998.8
20260506083100 54 137 2.6 10.4 0.16 0.41 0.22 73 1000.3
20260506081552 54 130 4.3 8.7 0.12 0.37 0.18 73 1000.6
20260506080106 54 111 5.2 11.3 0.04 0.28 0.10 72 1000.6
20260506073057 54 116 7.8 13.9 0.01 0.31 0.06 73 1000.6
20260506071542 54 157 7.8 14.8 0.01 0.31 0.06 73 1000.5
20260506061532 54 132 3.5 8.7 0.00 0.46 0.06 73 1000.9
20260506044532 53 136 3.5 8.7 0.02 0.47 0.05 74 1001.4
20260506043022 53 165 2.6 7.8 0.02 0.47 0.05 74 1001.5
20260506041517 53 103 2.6 8.7 0.01 0.46 0.03 73 1001.5
20260506040013 53 89 4.3 10.4 0.01 0.45 0.02 73 1001.7
20260506034511 53 146 2.6 8.7 0.01 0.45 0.02 73 1001.6
20260506033009 54 84 2.6 7.0 0.02 0.45 0.02 74 1001.6
20260506031508 54 126 4.3 8.7 0.02 0.45 0.02 74 1001.6
20260506030003 54 107 1.7 7.0 0.01 0.44 0.02 73 1002.0
20260506024615 54 92 1.7 5.2 0.01 0.44 0.02 73 1002.3